Theta_e
293 289 288 287 290 292 291 292 293 291 290 289 288 288 287 287 288 289 290 291 291 290 288 290 290 291 292 292 293 291 290 290 291 291 291 291 292 292 292 292 293 293 292 292 293 293 294 295 298 300 301 301 302 303 303 302 301 301 301 300 300 300 300 299 298 297 296 294 293 293 291 289 290 290 289 289 289 289 289 290 290 290 290 290 290 289
294 289 289 292 293 293 293 293 292 292 291 292 290 287 288 286 287 289 293 292 291 291 285 287 288 289 291 292 293 290 290 290 291 291 292 292 292 292 292 292 292 292 290 292 292 292 292 294 298 299 300 301 301 301 302 301 301 301 300 300 300 300 300 300 299 297 296 295 294 291 290 289 289 288 288 287 288 288 289 289 288 289 288 288 288 288
289 288 292 294 294 292 293 291 291 291 291 289 289 287 286 287 287 291 290 291 291 291 288 287 288 290 292 293 293 291 291 293 293 294 294 293 292 292 292 292 292 290 291 291 292 292 292 294 297 297 299 301 301 301 301 302 301 300 299 299 300 299 298 298 298 296 294 293 291 290 289 289 287 287 288 287 287 288 287 287 287 287 287 287 286 286
286 288 294 295 293 293 292 291 290 290 290 288 287 287 286 285 288 286 287 288 292 291 287 286 287 290 292 292 293 294 293 293 294 294 294 294 294 293 293 293 292 291 291 291 291 291 292 294 296 297 298 300 300 300 301 301 300 300 298 297 296 295 295 295 294 293 292 290 289 289 288 287 287 287 288 287 287 286 286 285 286 286 285 285 285 285
290 292 294 294 293 293 292 291 290 288 287 286 289 287 287 287 287 289 288 290 288 290 289 289 289 291 293 293 294 295 292 293 294 292 292 293 293 294 293 293 293 292 292 291 291 291 291 293 295 296 297 300 300 299 299 299 298 298 296 296 295 294 293 293 292 291 290 289 288 287 287 287 286 287 287 286 284 285 285 285 284 284 284 284 284 284
291 294 293 293 291 292 291 290 290 290 286 287 287 291 291 289 290 287 288 289 283 284 285 289 282 281 283 289 292 293 289 291 291 292 292 293 292 292 292 293 292 292 292 292 292 292 292 293 294 295 295 298 300 299 299 298 297 296 295 294 294 293 292 292 291 290 290 289 287 286 285 285 284 284 284 283 283 283 283 283 283 284 284 284 284 284
292 294 295 292 291 290 290 290 289 292 288 285 287 289 291 290 289 288 288 287 281 281 288 289 283 283 284 288 290 288 287 291 291 289 293 293 292 291 293 293 292 292 291 291 292 292 292 292 293 294 293 297 299 298 297 295 294 293 293 293 293 292 292 291 290 290 290 288 287 287 286 285 284 283 282 282 282 283 282 283 283 283 283 284 284 284
292 292 293 293 291 290 288 288 290 292 289 284 286 288 289 289 288 287 287 288 283 282 286 287 284 283 285 289 292 294 293 295 295 295 293 292 292 291 292 292 292 292 291 291 291 292 293 293 294 294 293 296 299 297 296 294 292 291 290 291 291 291 291 290 289 289 289 287 286 285 285 285 284 283 282 282 282 283 283 283 283 283 283 283 284 284
292 290 290 291 290 290 290 290 290 293 290 286 289 289 288 290 287 287 287 283 284 285 282 282 285 284 282 284 287 290 289 291 292 294 295 295 293 291 291 291 292 292 292 292 291 292 292 292 293 294 293 295 297 296 295 292 291 291 290 290 290 290 290 289 289 289 287 287 286 285 284 283 283 283 283 283 284 283 283 282 282 283 282 283 283 283
293 292 293 295 292 290 290 289 291 294 290 290 289 289 288 287 285 283 282 286 281 281 282 284 285 282 286 287 289 286 288 290 292 295 296 296 294 292 291 291 291 291 291 291 292 292 293 293 293 293 293 293 294 294 294 291 290 290 290 290 290 290 290 289 289 289 287 286 286 285 284 283 282 283 282 282 282 282 282 282 282 282 282 282 282 282
293 294 293 294 292 293 290 290 289 292 291 291 289 290 286 284 282 280 280 280 282 278 284 286 286 287 283 284 289 289 290 292 294 293 294 292 290 291 291 291 291 291 291 291 291 292 293 293 293 292 292 292 292 293 293 290 290 290 290 290 289 289 289 289 288 287 286 285 285 284 284 283 282 282 282 281 281 281 282 281 281 281 281 282 282 282
290 290 292 291 293 291 292 291 290 290 290 292 286 282 284 285 280 277 275 278 276 278 282 285 287 287 281 280 284 292 290 289 291 292 293 292 290 291 291 291 290 291 291 290 290 290 291 290 290 291 291 291 291 292 292 290 289 289 290 290 289 288 288 288 286 285 285 285 284 284 284 283 283 282 282 282 281 282 281 281 281 281 281 281 281 281
286 288 287 291 293 293 289 291 290 289 291 290 287 288 283 275 275 275 273 275 276 279 281 281 284 282 284 290 287 289 291 293 292 293 294 293 292 290 290 291 290 290 289 290 290 290 290 291 290 290 290 290 290 291 291 290 290 290 289 289 289 288 287 286 285 285 285 284 284 284 283 283 283 283 282 282 282 282 282 282 281 281 281 281 281 280
285 282 288 290 292 292 294 290 285 286 288 287 288 284 281 276 274 270 272 270 273 277 280 282 284 283 283 288 294 295 297 297 295 293 291 291 292 291 291 290 290 289 289 290 290 290 290 291 290 290 290 290 289 291 291 290 290 289 289 288 288 287 286 285 285 285 284 284 284 283 283 283 283 283 283 282 282 282 283 282 282 281 281 280 280 280
279 281 288 291 289 292 295 295 293 288 288 290 287 290 286 280 273 271 272 275 276 275 277 279 280 278 280 286 287 293 293 290 288 289 289 288 289 290 288 289 289 288 288 289 289 290 290 291 290 290 290 290 289 290 290 290 290 289 289 288 287 286 285 285 285 285 284 284 283 283 283 284 283 283 283 283 283 282 282 282 281 281 280 280 280 280
286 285 286 294 291 294 294 293 291 289 288 285 284 286 283 285 282 282 275 274 273 274 274 276 281 281 286 287 288 285 285 287 286 287 288 290 287 287 287 289 289 289 289 289 289 289 290 290 290 290 289 289 289 289 289 289 289 289 289 288 287 286 285 285 285 284 284 284 284 283 283 283 283 283 283 283 283 281 281 281 281 280 280 280 280 280
284 282 287 291 291 294 294 292 293 293 286 285 287 285 287 286 288 282 276 277 278 273 280 276 280 283 285 291 293 293 289 288 287 288 287 287 286 285 287 288 288 289 289 288 289 289 289 289 289 289 289 289 288 288 289 289 289 289 288 287 286 285 285 285 285 284 284 284 284 283 283 283 283 282 282 282 281 281 280 280 280 280 280 280 280 280
285 283 288 288 288 290 287 290 289 289 290 286 283 286 288 288 285 283 278 273 271 274 277 279 281 283 280 284 284 287 288 290 289 289 288 285 284 285 288 287 288 288 289 289 288 289 289 289 289 289 289 288 288 288 288 288 289 289 288 287 286 285 285 285 285 284 284 284 284 283 283 283 283 282 282 281 281 280 280 279 279 280 280 280 280 281
293 285 286 286 286 288 289 292 291 290 289 289 286 288 290 282 281 281 276 274 271 273 275 276 280 283 284 286 284 286 287 290 291 291 286 287 286 287 287 287 287 286 287 287 287 288 288 288 288 288 288 288 288 288 288 287 287 288 288 287 286 286 286 285 285 285 285 285 285 284 284 283 282 282 281 281 280 280 280 279 279 280 280 280 280 280
292 286 284 286 287 288 288 290 284 285 290 288 290 289 285 283 278 279 283 276 276 274 270 278 278 282 285 286 288 290 289 291 293 291 289 290 290 289 288 287 287 287 288 288 288 288 288 287 287 287 287 287 287 287 286 286 286 286 286 286 286 286 285 284 284 285 284 285 285 284 283 282 282 282 281 281 280 280 280 280 280 279 279 280 280 279
289 289 282 285 284 287 285 286 286 288 287 286 286 285 287 283 285 283 282 280 278 272 271 276 279 282 285 289 289 292 291 292 292 292 291 292 292 290 289 288 288 287 288 288 288 288 287 287 286 286 287 287 286 286 286 285 285 286 286 285 285 285 284 284 284 284 284 284 284 283 282 282 281 281 281 280 280 280 279 279 280 280 280 280 279 279
289 286 285 284 283 284 285 286 290 292 293 291 290 287 289 285 283 279 280 281 277 279 278 272 280 285 286 288 293 293 293 293 291 292 293 292 292 290 289 288 288 288 288 288 288 287 287 286 286 285 285 286 286 286 285 285 285 285 285 286 285 285 284 284 284 284 284 284 283 282 282 281 281 281 281 280 279 279 279 279 279 279 279 279 279 278
294 287 285 282 284 287 286 288 288 288 290 288 289 286 291 290 287 281 280 279 279 283 279 274 272 285 289 288 289 291 291 293 292 291 292 293 292 290 289 289 288 288 288 288 288 287 287 287 286 285 285 285 285 286 285 284 285 285 285 285 285 284 284 284 284 284 284 283 282 282 282 281 281 280 280 280 279 279 279 279 279 279 279 279 278 278
295 289 287 285 284 285 287 287 287 286 289 288 287 283 286 288 289 289 286 284 285 280 280 276 277 284 287 286 284 284 284 284 285 288 292 292 291 288 288 288 288 287 287 287 287 287 287 286 285 284 284 284 285 285 285 285 285 285 285 285 284 284 284 284 284 283 283 283 282 282 281 281 281 280 280 279 279 279 279 279 279 279 279 278 278 277
290 287 289 285 282 283 282 285 286 286 288 282 283 288 290 290 289 286 285 284 283 284 284 281 279 285 287 285 284 286 285 287 289 288 287 290 291 289 287 287 287 287 286 286 286 286 285 285 284 284 285 285 285 285 285 285 285 284 284 284 284 284 284 284 283 283 283 282 281 281 281 280 280 280 280 279 279 278 278 278 278 278 278 277 277 277
293 289 288 284 282 280 279 279 282 284 286 286 284 288 288 289 288 286 286 286 283 287 285 284 284 290 286 285 288 287 284 288 286 285 285 287 290 290 287 287 287 287 287 286 286 285 285 285 285 284 284 285 285 285 285 285 285 284 284 284 284 284 283 283 283 283 282 282 281 281 281 280 280 280 280 279 279 278 278 278 278 278 277 277 277 276
288 290 292 290 288 286 288 288 286 289 285 285 287 288 289 290 291 290 289 287 284 284 283 288 289 290 289 288 286 288 285 286 288 288 290 291 289 287 286 287 287 287 287 286 286 285 284 284 284 285 285 285 285 285 285 285 285 284 284 283 283 284 283 283 283 282 282 281 281 281 281 280 280 280 279 279 279 279 278 278 278 277 277 277 277 277
286 288 291 292 291 292 293 291 287 292 288 289 288 286 289 289 289 288 287 286 287 282 283 289 288 287 290 292 293 290 286 286 287 288 288 288 289 288 287 285 288 285 285 285 285 285 285 285 285 284 284 284 284 285 285 285 285 284 284 283 283 283 283 283 282 282 281 281 281 280 280 280 280 280 279 279 279 278 278 278 278 278 277 277 276 276
288 289 292 291 291 293 294 291 289 291 290 290 289 288 287 289 288 286 287 290 288 286 285 290 288 288 292 294 295 295 293 294 293 292 292 290 288 286 285 286 286 286 285 285 286 286 285 285 285 285 284 284 284 284 284 284 284 284 283 283 283 282 283 283 282 282 281 281 280 280 280 280 280 279 279 278 278 278 278 278 278 278 276 276 277 277
288 286 287 289 289 291 292 292 289 289 287 287 288 288 289 288 287 288 288 290 289 289 291 292 291 290 293 295 293 295 295 296 296 291 288 289 290 289 287 287 287 286 286 286 286 287 286 286 285 285 284 284 284 284 284 284 284 283 283 282 282 282 282 282 282 282 282 281 281 281 281 281 280 279 278 278 278 277 278 278 278 277 276 276 276 276
290 287 290 288 288 288 291 291 288 288 287 287 287 287 288 288 288 288 289 289 289 290 291 291 290 290 295 292 294 295 294 293 290 289 292 292 292 289 289 289 289 288 287 287 287 287 286 286 285 285 284 284 284 284 284 284 284 283 283 282 282 282 282 283 282 282 282 281 281 281 281 280 280 279 278 278 278 278 278 278 277 276 276 276 275 275
290 286 286 287 285 286 289 289 288 286 287 287 288 288 287 287 284 286 286 290 288 288 289 289 288 289 294 293 297 292 290 292 294 294 292 292 291 289 289 289 289 289 289 289 288 287 286 286 285 285 285 285 284 283 283 284 284 284 283 283 283 283 282 282 282 282 282 282 282 281 281 280 280 279 279 278 278 278 278 277 275 275 276 276 276 276
288 287 286 286 285 285 288 287 286 286 286 285 286 289 290 289 289 289 290 291 291 292 288 286 288 294 296 293 291 290 292 293 293 293 292 291 290 290 291 291 290 290 290 289 288 288 288 288 287 286 286 285 285 284 284 285 284 284 284 284 283 283 282 282 282 282 282 282 281 281 281 280 280 279 279 278 278 278 277 276 276 276 276 276 276 275
287 289 287 287 284 286 286 285 286 285 279 282 293 294 295 290 289 287 287 289 291 292 291 294 294 296 295 291 292 294 291 292 294 294 294 295 292 288 289 290 291 291 290 289 289 288 288 288 287 287 286 286 286 285 285 285 285 285 285 284 283 283 282 282 282 282 282 282 281 281 280 280 280 279 279 278 278 277 276 276 276 276 276 276 275 275
287 288 287 287 284 285 285 286 283 278 282 290 287 287 289 295 294 291 292 292 292 292 293 292 293 293 294 295 294 294 293 292 291 292 291 289 289 290 291 291 291 291 290 288 287 287 288 288 288 287 286 286 286 285 285 284 284 284 283 283 283 282 282 283 283 282 282 282 281 281 280 280 280 279 279 278 278 277 276 276 276 276 276 276 275 275
287 288 286 284 285 284 281 284 277 280 287 288 286 283 284 288 289 291 289 292 293 293 293 291 293 295 296 296 294 291 289 288 288 287 285 285 287 290 291 292 291 289 287 287 288 288 288 288 288 287 287 286 286 285 285 284 284 284 283 283 283 283 283 283 282 282 282 282 281 281 280 280 280 279 279 278 277 276 276 276 276 276 276 275 275 275
291 288 287 284 286 281 282 283 284 288 287 289 288 284 288 287 286 288 286 290 294 294 293 292 293 294 294 294 294 292 285 287 287 289 284 285 286 288 290 289 289 289 289 289 289 289 289 289 288 288 287 286 286 285 285 285 284 284 283 283 283 283 283 283 282 282 282 282 282 281 281 280 280 279 278 278 277 277 277 277 276 276 276 274 275 275
292 288 287 286 283 286 284 282 281 282 279 286 288 286 290 289 291 293 290 288 289 291 293 293 292 293 292 292 292 285 285 287 288 291 288 287 286 287 288 287 287 287 287 287 287 287 287 287 287 287 287 286 285 285 285 285 284 284 283 283 283 283 283 283 282 283 283 282 282 281 281 280 280 279 279 278 277 277 277 277 277 276 276 275 274 274
288 290 288 287 285 283 283 280 281 279 283 286 285 283 282 280 288 286 286 285 285 281 280 289 292 292 291 291 284 285 287 287 289 291 286 285 285 285 285 285 285 285 286 286 287 287 287 287 287 287 287 286 285 285 285 285 285 284 283 283 283 283 283 283 283 283 282 282 282 281 281 280 280 280 279 278 278 278 277 277 277 277 275 275 275 275
287 287 287 284 283 285 284 282 280 284 285 285 283 281 282 279 289 289 279 281 285 281 280 280 286 287 286 285 284 286 287 287 289 287 286 284 283 284 284 285 285 285 285 285 286 287 287 287 287 286 286 286 286 286 285 285 285 285 284 284 283 283 283 283 283 283 283 282 282 281 281 280 280 280 280 279 279 278 277 277 276 275 274 273 273 273
284 283 285 282 284 284 285 283 284 285 286 284 284 283 280 282 289 284 280 284 285 281 278 280 281 282 283 283 286 287 286 283 283 283 283 283 285 283 283 284 284 284 284 285 285 286 287 287 287 287 287 286 286 286 285 285 285 284 284 283 282 282 283 283 283 283 282 282 281 281 280 280 280 280 280 280 279 279 277 276 276 274 272 272 271 270
282 283 283 285 283 283 284 282 283 286 287 285 283 284 283 288 281 281 286 282 281 279 279 281 281 281 282 284 284 283 282 278 279 282 283 283 283 282 282 283 284 284 284 285 285 286 286 286 285 285 284 284 285 285 285 285 285 284 283 282 282 283 283 282 282 281 281 280 280 280 280 280 280 280 280 279 278 277 276 275 274 274 273 272 270 269
283 282 280 282 284 283 283 282 281 277 287 287 286 284 284 283 284 284 281 279 280 280 280 281 281 282 282 281 278 278 278 278 279 280 281 282 283 283 283 284 284 284 284 285 284 284 286 285 284 284 283 282 283 284 285 285 284 283 282 281 282 282 281 281 280 280 280 280 280 279 279 280 279 279 279 278 277 277 276 273 272 272 271 270 269 269
287 281 281 283 287 279 282 279 281 287 286 287 290 286 286 285 284 282 281 281 280 279 279 281 281 281 280 280 279 279 279 279 279 279 279 279 280 281 281 281 281 281 281 281 282 282 283 283 281 280 279 279 280 282 284 284 282 281 281 282 281 280 279 279 279 279 279 279 279 278 278 278 278 278 278 277 276 275 275 273 272 270 270 269 269 268
288 285 286 284 287 285 284 286 285 282 284 283 282 283 283 284 282 281 281 281 281 280 279 280 282 283 282 280 280 281 280 280 280 280 281 280 280 280 280 281 281 282 282 282 281 281 282 281 279 278 277 277 278 279 281 282 282 280 281 280 279 279 279 278 277 278 277 277 277 277 277 276 277 277 276 276 276 275 275 273 270 270 268 268 268 268
284 285 284 286 285 283 284 283 283 281 282 282 283 282 281 282 281 280 280 281 280 280 280 281 283 282 280 280 280 278 278 278 277 277 278 279 279 279 279 280 279 279 279 279 278 279 279 279 278 278 276 273 273 275 275 276 280 279 277 276 277 277 277 276 276 276 277 276 276 276 276 275 275 275 276 275 275 276 276 274 271 272 270 268 269 269
283 282 285 283 284 286 283 283 282 284 283 282 283 283 282 281 281 280 280 280 280 279 279 281 284 281 279 278 279 278 277 276 276 277 278 278 279 279 279 279 279 279 279 279 277 277 278 279 278 276 276 277 273 272 271 271 273 271 270 271 273 273 274 275 276 276 275 275 275 272 274 275 275 274 273 273 273 273 274 274 272 272 270 269 269 269
281 283 284 282 284 284 282 280 281 280 279 281 281 282 283 282 279 278 279 280 280 280 281 281 281 281 280 279 278 278 277 277 279 279 279 279 279 278 277 277 277 277 275 275 274 274 275 276 277 275 273 275 273 271 270 270 271 270 270 268 270 269 271 273 275 276 275 274 273 273 273 275 272 273 273 272 273 273 272 272 272 272 272 270 270 270
282 287 280 284 283 280 281 280 278 281 283 283 282 281 283 283 281 279 279 280 281 281 280 279 280 281 281 280 278 278 278 278 278 279 279 279 278 278 277 277 277 277 276 276 273 274 276 273 273 272 272 272 271 270 270 270 270 269 271 269 267 269 271 271 271 271 270 269 269 272 271 273 273 274 274 273 271 273 274 274 272 272 273 274 272 272
283 282 282 282 277 278 282 283 281 283 283 286 285 284 284 284 281 279 279 279 280 280 280 281 279 278 279 280 279 280 281 279 278 279 279 279 279 278 277 276 275 275 274 273 272 271 271 271 272 272 272 273 271 271 271 269 269 269 269 266 266 270 272 270 268 268 269 268 270 269 268 269 270 270 271 271 271 270 270 270 275 274 272 271 274 276
284 284 283 281 282 282 284 283 287 287 287 287 289 288 286 284 281 279 280 280 280 280 281 281 280 279 279 279 280 281 280 279 278 278 277 276 276 276 277 276 276 275 274 273 273 271 271 271 271 272 272 272 270 269 269 269 268 268 267 268 267 269 270 269 270 270 270 268 270 270 269 268 269 269 268 269 268 268 268 268 269 276 277 277 275 275
Wind_Speed
1 3 5 7 9 9 6 9 10 4 4 3 3 1 3 3 5 4 3 4 3 1 7 9 10 10 10 10 10 6 4 7 10 10 10 8 10 11 11 12 11 10 9 5 7 7 7 7 6 6 5 5 5 6 8 8 8 8 9 9 9 8 9 9 9 8 9 10 8 7 7 8 6 6 5 7 5 6 6 6 7 7 6 7 7 6
4 3 8 10 10 9 10 7 4 0 1 1 1 1 6 3 7 5 1 1 1 4 3 5 7 11 13 12 11 2 6 12 14 14 13 13 12 12 13 13 12 8 3 6 6 6 5 6 6 6 6 7 9 6 7 9 9 7 8 9 9 8 8 7 8 8 6 4 6 10 7 8 6 5 6 7 6 6 6 7 7 6 6 7 7 6
2 8 12 12 5 2 1 4 3 6 5 2 3 3 3 7 4 8 4 2 1 2 8 3 5 11 12 12 8 7 11 10 13 16 18 16 14 12 12 13 9 7 9 8 7 6 7 7 7 7 6 6 7 8 7 8 8 7 7 7 8 8 7 5 6 6 6 7 6 7 7 7 7 5 4 5 5 5 7 7 6 6 6 7 7 6
2 6 16 8 5 3 2 2 3 1 1 4 3 1 8 3 0 6 2 2 0 3 3 0 5 10 10 8 12 12 11 9 9 12 15 11 14 15 17 16 15 15 13 14 13 11 8 8 8 7 7 7 6 7 7 7 8 7 6 5 6 6 5 6 6 8 8 10 11 9 9 7 7 8 6 7 6 6 8 9 6 6 6 6 7 5
10 3 2 6 8 8 6 5 4 3 7 3 6 5 4 4 5 8 5 2 2 3 1 5 8 12 10 12 10 9 3 7 11 6 10 12 11 10 7 7 11 16 16 14 11 10 10 11 12 10 8 7 8 8 8 8 8 6 7 6 7 7 7 7 9 10 12 13 12 10 9 10 11 7 7 8 7 5 5 6 7 6 5 6 6 5
8 7 3 6 4 6 5 4 7 7 6 4 6 11 10 6 7 4 2 2 5 4 2 1 5 7 5 8 12 6 3 5 5 7 13 14 12 9 11 14 9 8 10 16 17 16 13 11 8 8 8 9 9 9 8 7 7 6 6 6 6 6 7 8 10 12 12 12 14 11 11 9 8 8 7 8 10 6 6 6 3 6 5 5 6 6
6 3 4 5 5 5 6 5 4 7 7 3 6 9 9 7 4 1 1 2 2 4 1 1 5 12 1 4 5 5 3 10 6 6 12 10 11 11 14 11 12 13 11 7 8 9 12 11 11 11 10 10 11 8 7 6 7 6 7 7 7 8 8 8 10 9 10 11 11 13 11 11 11 11 3 3 4 7 5 5 6 6 5 4 7 6
3 5 6 2 4 5 4 5 5 10 6 5 2 4 5 3 4 5 3 6 6 1 5 1 2 6 14 7 6 9 10 14 12 12 13 12 10 11 11 9 10 12 13 14 15 14 13 13 15 15 12 10 11 9 8 8 7 8 8 8 8 7 9 8 8 8 8 11 8 9 9 9 9 10 9 6 6 5 6 7 6 6 6 5 6 7
6 5 5 5 5 5 8 6 4 9 7 4 1 6 4 4 4 2 3 3 1 1 8 4 1 5 7 6 3 1 5 10 14 15 15 14 11 10 9 10 12 13 15 15 15 16 16 16 15 12 12 9 8 9 10 9 8 8 8 8 8 9 8 8 8 9 5 6 11 11 10 9 6 10 9 6 6 7 6 9 6 7 6 6 6 5
1 5 9 10 8 8 6 2 7 11 6 1 5 7 7 7 6 4 3 2 1 1 8 7 3 6 15 4 3 1 2 10 12 15 13 11 9 10 11 10 10 9 9 11 13 13 13 13 12 10 8 7 8 7 7 7 8 8 8 9 10 9 8 9 8 7 8 6 9 11 11 14 10 9 8 7 8 7 6 9 6 6 6 6 6 5
1 3 3 3 6 4 5 1 3 5 2 6 4 7 6 8 3 3 6 2 1 4 11 8 9 8 11 3 7 6 8 8 8 6 7 4 4 7 10 10 11 11 12 11 11 10 10 9 9 10 12 10 6 6 9 8 8 8 10 10 10 10 9 8 9 8 8 8 8 11 13 15 14 11 11 10 8 7 7 9 7 6 6 5 6 5
2 2 1 1 3 3 4 4 4 1 3 6 2 4 4 3 6 3 4 4 1 8 3 10 12 11 11 4 6 7 3 3 5 7 8 7 6 8 8 9 9 10 10 10 10 10 10 9 8 8 10 10 9 8 9 8 8 9 10 11 11 9 10 8 8 9 9 8 7 9 13 14 14 14 12 13 13 10 10 9 9 6 6 5 5 5
3 3 2 4 4 9 2 5 2 4 1 5 6 7 5 4 4 3 2 3 7 8 1 3 1 3 16 14 4 6 10 10 9 9 9 7 8 7 7 9 9 8 8 11 11 11 11 13 13 13 11 10 10 11 11 11 10 10 10 12 13 11 9 9 9 11 9 8 9 10 12 12 11 11 11 11 11 10 10 9 9 8 8 6 6 5
7 2 3 3 3 5 8 9 2 1 4 6 8 7 6 1 1 4 5 2 5 6 4 2 1 7 3 8 13 19 19 16 10 8 8 7 7 7 8 7 8 10 11 11 11 12 12 13 12 13 13 12 11 12 12 11 11 10 10 11 13 12 8 8 9 11 10 9 9 9 10 11 11 10 10 9 11 10 9 8 10 9 9 8 8 7
4 4 8 7 6 4 9 13 13 6 10 10 3 12 10 9 7 5 5 5 6 4 3 4 2 7 4 5 3 11 8 7 7 9 7 6 7 6 4 5 7 8 9 10 12 13 14 14 14 14 14 13 12 13 12 11 11 11 11 11 12 12 9 10 11 11 12 10 9 9 9 10 9 10 9 8 8 9 10 8 9 7 6 8 7 7
12 7 5 9 1 8 12 2 7 6 2 2 2 6 5 10 7 6 5 3 2 2 2 1 7 5 7 2 3 3 5 6 5 8 6 9 1 2 4 8 11 11 11 11 11 11 11 11 12 12 12 12 12 12 11 13 12 12 12 12 11 12 12 12 12 11 12 11 9 9 10 10 9 8 7 7 6 6 7 9 9 8 7 7 7 6
2 5 1 2 4 8 7 4 2 5 8 4 6 8 7 2 4 2 2 1 1 2 11 4 8 8 8 10 11 12 7 9 6 8 7 6 2 2 6 7 8 10 11 11 12 12 12 10 11 12 13 12 12 12 13 14 13 14 13 12 12 10 10 11 12 12 12 12 11 10 10 9 9 10 10 10 9 9 7 7 7 8 7 7 7 7
8 6 1 3 4 1 0 0 3 4 4 8 4 8 2 1 4 4 5 2 1 5 6 4 9 7 1 12 3 0 7 10 9 11 8 4 3 6 9 8 10 11 11 10 9 9 12 13 14 12 12 13 14 14 13 13 12 12 12 12 13 12 14 12 12 13 12 14 13 11 10 9 10 10 9 9 10 8 9 7 7 7 8 8 7 7
4 4 1 1 1 3 2 2 3 2 3 7 7 4 8 4 2 2 4 4 1 5 7 5 5 12 9 11 2 2 7 11 14 14 6 9 7 13 9 7 6 5 6 10 11 11 12 13 13 13 13 10 10 10 11 10 11 11 11 11 12 14 13 14 12 11 10 12 10 10 11 11 10 8 8 7 8 8 9 10 9 9 8 7 7 7
1 5 2 1 2 1 0 4 9 4 2 2 3 3 1 3 1 6 7 3 5 5 2 8 7 12 7 8 10 10 11 12 13 9 9 14 14 12 9 8 10 11 11 11 11 11 12 11 12 12 13 13 13 11 10 11 10 12 12 12 10 9 9 10 11 12 13 12 11 10 9 8 9 9 9 9 10 10 10 10 10 9 9 9 7 7
2 1 6 0 3 2 3 5 9 13 11 3 3 5 1 0 1 4 0 4 5 3 5 8 12 4 5 7 10 11 12 12 11 11 11 13 14 11 9 10 10 11 11 12 11 11 11 11 11 10 10 10 9 9 10 11 13 13 11 12 12 14 13 13 12 12 11 11 11 12 13 12 10 11 9 9 9 10 10 9 9 9 8 7 7 8
3 3 8 3 0 7 6 3 7 12 14 14 15 13 15 10 5 4 8 2 1 3 7 2 17 4 3 4 9 9 12 11 8 10 12 12 12 10 9 9 10 11 11 10 10 9 10 10 11 10 9 9 11 11 12 11 10 12 13 12 12 11 12 13 13 13 12 11 11 13 13 12 10 10 9 10 10 9 9 9 9 9 8 9 8 8
7 4 5 6 6 9 5 1 2 3 0 1 4 7 9 8 5 4 7 6 1 6 2 2 3 17 4 4 5 5 5 8 8 6 10 9 10 7 7 7 8 9 9 10 10 10 10 10 11 11 13 13 14 12 11 10 12 12 12 12 12 13 13 12 12 11 12 12 12 13 12 11 11 11 11 11 10 10 10 9 8 8 10 9 8 6
6 3 3 1 1 2 2 2 1 2 2 1 1 2 5 10 12 10 5 4 7 2 3 3 5 8 3 1 1 4 4 6 4 5 9 9 7 5 5 7 8 7 6 6 7 7 8 8 9 10 12 13 13 14 16 14 13 12 13 13 13 14 13 11 12 12 12 12 12 12 12 12 11 12 12 12 10 11 10 9 9 8 8 8 7 8
5 3 7 2 1 0 3 2 2 2 1 2 3 6 11 8 5 2 4 2 2 9 8 7 14 14 1 3 3 1 3 3 6 5 4 7 9 7 5 5 5 6 6 8 10 9 8 9 12 13 12 12 12 12 12 13 14 13 13 12 13 12 11 12 11 12 13 13 13 12 13 13 12 13 13 12 10 11 10 10 9 8 9 8 8 7
7 6 8 9 13 12 10 12 15 11 12 5 3 5 6 10 12 5 6 6 7 10 10 8 14 15 1 3 3 2 2 4 5 5 4 6 9 7 4 4 7 9 11 9 9 10 14 13 11 11 14 14 14 14 13 13 12 12 12 13 11 12 12 12 11 12 13 13 14 13 14 13 12 14 14 12 11 12 11 10 10 9 8 8 9 8
4 5 12 15 16 17 17 7 2 10 6 7 12 14 15 14 13 10 6 7 15 3 6 16 22 19 9 3 2 4 2 4 7 4 5 8 7 5 4 5 7 8 9 11 11 9 7 11 17 16 13 13 12 12 12 13 13 13 12 13 12 11 12 11 11 12 12 12 13 12 13 13 13 12 12 11 11 10 9 10 10 10 10 8 9 9
4 5 15 19 21 22 20 11 9 19 18 20 16 13 15 14 15 14 13 18 5 5 15 20 8 11 23 13 13 9 5 5 7 8 8 7 8 6 4 4 4 5 6 7 9 13 17 16 12 13 16 14 14 12 11 12 12 13 13 14 12 11 11 10 12 12 12 12 12 13 13 12 10 11 11 9 9 10 10 10 10 9 8 8 9 10
3 11 15 15 18 22 18 5 11 10 14 14 17 16 16 17 15 18 23 22 9 12 19 21 9 14 22 20 17 12 7 12 12 13 10 4 0 3 5 6 8 9 8 11 15 15 14 14 16 15 14 14 12 14 13 11 11 10 10 10 10 10 12 11 11 12 12 12 13 13 11 10 9 8 9 9 9 10 10 10 10 9 9 9 9 8
2 5 2 5 15 14 17 11 8 9 3 2 9 13 14 18 22 24 22 18 16 15 19 22 18 17 21 15 6 9 11 15 12 3 1 4 7 8 6 8 10 10 11 14 16 16 16 15 12 12 12 12 15 15 14 14 13 13 13 12 11 11 10 10 12 13 13 14 13 10 10 11 10 10 9 10 11 11 10 10 10 10 9 10 9 9
3 3 3 3 4 13 16 6 6 7 3 5 7 8 15 19 21 20 17 16 15 18 22 22 20 22 19 1 9 9 5 2 2 6 11 12 8 7 9 10 10 11 13 14 12 13 13 12 11 12 14 16 16 16 15 13 12 11 11 11 11 11 10 10 11 11 11 11 9 9 9 10 10 10 11 11 10 9 11 11 9 9 9 9 9 9
5 4 2 1 4 9 11 10 5 5 6 9 13 16 21 17 8 8 12 14 13 17 20 17 18 22 12 8 11 2 4 9 13 13 10 9 9 9 10 12 11 12 13 14 14 12 12 14 14 16 18 17 15 14 13 13 13 12 13 13 13 12 11 11 11 12 11 10 10 10 11 11 10 11 11 11 11 10 9 8 8 9 9 9 9 8
6 4 4 3 6 10 6 3 7 4 2 6 14 27 25 13 14 12 14 15 17 19 15 15 20 20 22 7 5 6 9 11 12 10 10 10 8 11 13 14 13 12 13 15 14 15 16 16 15 15 13 11 13 14 13 11 11 13 13 12 11 10 12 13 12 12 11 10 10 10 10 10 11 11 10 10 10 9 9 10 9 10 10 11 9 7
7 9 6 4 6 6 2 4 6 5 12 15 15 6 11 15 18 18 17 18 18 14 16 19 21 21 15 6 11 14 9 12 13 13 10 11 10 9 10 9 11 11 10 9 9 9 8 7 7 9 12 13 12 12 11 12 12 9 8 8 8 11 10 11 11 11 11 10 10 10 10 11 10 10 10 9 9 9 9 10 12 10 8 7 7 8
9 9 7 5 4 7 5 7 5 13 16 5 5 3 1 12 16 18 20 17 18 18 18 19 20 20 17 14 13 11 9 10 8 9 7 4 2 6 11 13 13 12 9 6 6 6 8 10 10 10 10 10 11 11 11 10 10 9 9 10 10 10 10 10 10 10 10 10 10 9 9 11 10 11 10 10 9 10 10 11 9 9 9 9 9 10
10 10 5 3 3 2 3 7 7 10 3 5 2 2 2 4 4 8 13 19 18 19 20 22 25 24 21 19 14 9 7 5 5 5 4 4 6 8 8 10 8 4 4 6 8 10 11 12 13 14 13 9 10 11 12 12 11 11 11 10 11 10 10 10 10 10 10 10 10 11 12 12 11 11 9 10 10 10 11 11 11 11 9 7 7 6
13 6 6 6 5 7 5 9 13 6 13 13 6 3 6 6 6 10 10 16 18 17 16 17 22 21 18 17 17 9 0 2 6 10 3 6 5 4 6 5 5 9 11 10 10 9 7 7 7 7 8 10 11 12 11 10 11 11 10 11 11 12 11 11 12 13 13 13 13 13 12 12 12 11 10 10 10 11 12 12 11 9 7 8 9 9
13 11 6 9 5 8 8 8 2 3 11 16 3 3 6 5 7 9 9 15 6 8 12 14 18 20 17 16 14 1 2 3 12 14 6 5 2 3 1 2 2 2 4 4 3 4 5 6 7 8 10 10 10 10 9 10 12 11 11 11 10 10 10 11 14 14 13 12 11 11 10 10 10 11 11 11 13 13 12 10 7 8 8 10 10 11
3 6 9 12 4 5 6 7 7 8 10 2 2 4 3 2 7 4 3 13 3 5 5 11 18 17 14 12 5 6 3 9 14 12 3 4 4 2 4 2 3 3 3 4 6 6 6 7 9 9 9 10 11 10 11 12 12 11 11 10 11 10 11 13 14 12 12 11 9 9 10 10 11 11 12 12 13 12 12 11 11 8 7 9 8 9
7 5 6 9 8 9 9 9 9 5 8 3 4 1 3 3 7 6 1 10 1 3 2 4 8 8 6 3 5 6 8 11 14 7 3 4 3 1 3 6 5 4 5 5 4 5 7 8 9 8 10 11 9 9 11 11 11 11 11 9 8 10 13 15 13 8 8 9 10 10 9 9 11 12 12 14 12 9 10 7 6 8 9 8 7 7
5 2 8 15 13 13 14 8 3 6 3 4 6 3 2 2 5 7 16 3 3 3 2 3 4 5 3 4 7 9 7 4 3 3 2 4 6 4 4 4 4 5 6 6 6 6 7 6 7 8 7 7 9 9 10 10 10 9 8 8 9 13 15 10 7 9 9 9 9 9 10 9 11 13 12 11 11 10 8 8 9 7 7 8 7 6
0 2 0 5 10 11 10 10 9 6 5 7 0 9 6 7 7 14 3 1 4 3 2 4 3 3 4 6 5 2 1 2 1 1 4 3 4 3 4 4 6 8 6 6 6 7 7 7 7 7 6 6 9 9 9 10 10 9 9 9 12 15 9 7 8 8 7 8 9 10 10 10 9 10 10 8 7 8 8 7 7 7 8 7 6 8
11 8 8 9 5 0 1 8 4 8 3 9 11 2 2 4 6 2 3 0 1 1 1 1 4 4 5 3 2 4 2 3 3 3 4 4 4 4 4 4 6 6 6 6 6 4 7 6 5 5 5 4 6 7 8 10 10 8 8 10 14 7 6 6 7 8 8 8 8 9 9 9 10 9 8 8 9 10 9 7 8 7 7 8 8 9
4 6 3 5 6 6 9 8 7 5 7 11 16 12 9 8 3 5 5 2 1 2 2 1 0 4 3 8 8 4 3 5 4 4 5 5 5 4 4 5 5 5 5 5 3 4 5 6 5 5 3 3 4 5 6 9 9 8 9 13 4 5 5 6 6 7 7 7 8 7 8 8 9 8 7 8 8 8 9 8 8 7 8 8 8 8
10 10 4 7 6 8 6 5 0 2 4 3 1 2 0 2 2 6 2 4 6 3 3 3 3 3 5 8 7 8 5 1 5 4 6 6 6 5 6 5 5 5 5 6 5 3 5 8 8 7 5 3 4 5 6 7 10 8 10 4 5 6 7 6 6 7 6 7 7 8 7 6 7 8 8 8 9 9 9 8 7 8 7 7 8 8
3 2 1 4 3 1 2 2 0 1 2 2 2 2 1 0 0 3 4 4 1 3 6 6 5 5 5 5 8 1 4 6 6 4 4 5 5 5 5 6 5 4 4 5 4 5 6 7 7 8 8 4 3 4 4 4 7 9 3 1 4 5 6 7 6 6 7 7 7 7 6 7 6 6 7 7 8 9 9 10 9 10 8 8 9 9
3 2 2 3 1 6 8 4 4 4 0 2 2 2 2 2 0 1 3 3 5 4 3 3 7 6 6 4 6 6 5 4 6 5 5 5 5 6 6 7 5 5 7 7 5 7 7 7 7 7 6 6 2 3 4 4 5 4 2 3 3 5 5 6 7 6 5 6 6 5 6 7 7 7 6 6 6 7 7 7 8 8 8 9 10 10
3 4 3 1 4 9 3 1 3 2 4 3 3 3 2 1 2 1 1 3 5 3 4 5 6 6 4 4 5 8 6 4 7 6 5 5 6 5 6 6 6 5 3 4 4 5 5 6 7 6 5 4 2 3 3 4 4 4 4 3 3 4 4 5 5 6 6 6 5 7 7 8 9 9 7 8 9 8 8 7 8 10 11 12 12 12
4 8 5 6 6 1 3 3 2 1 3 5 4 5 4 3 4 4 3 5 4 7 6 4 2 5 5 6 5 7 7 4 4 7 7 6 5 4 5 5 4 4 5 5 3 4 5 5 6 5 5 2 2 3 3 3 2 2 3 4 4 4 4 3 2 2 2 3 4 6 5 6 6 7 7 7 7 8 9 10 10 11 11 10 8 10
7 8 3 6 2 4 12 9 8 5 4 8 10 9 8 6 5 5 4 5 5 6 4 6 3 3 2 4 7 7 8 6 4 5 7 6 6 5 5 6 5 5 4 3 4 4 5 6 6 6 5 2 2 3 3 2 1 0 0 2 3 4 5 4 4 3 3 3 4 3 4 4 5 4 5 6 7 7 7 6 6 7 7 7 5 11
10 8 9 8 10 11 7 6 12 3 0 4 9 10 8 8 7 7 6 6 4 3 6 8 6 3 3 2 1 5 6 8 6 5 6 4 4 4 6 8 7 6 5 5 6 4 5 4 4 5 5 3 1 2 2 2 0 0 2 1 0 1 3 4 4 3 3 3 4 4 4 3 4 4 3 4 4 4 5 6 5 9 12 11 7 8
Wind_Direction
123 118 175 198 214 209 201 194 199 200 153 115 109 123 217 211 282 290 269 255 192 88 231 225 232 244 258 254 257 215 193 233 243 242 232 224 214 211 212 210 208 205 203 173 176 177 176 181 185 182 163 157 155 157 152 147 151 156 149 148 147 147 141 139 137 135 135 129 112 86 96 102 93 91 82 73 61 63 63 65 66 67 70 73 76 72
68 168 241 221 213 193 202 206 225 54 184 193 236 214 273 184 256 239 229 3 286 173 288 247 245 255 254 260 262 203 172 225 225 231 235 229 220 215 210 212 208 196 107 156 179 186 177 182 186 175 173 163 161 174 163 157 162 162 156 153 150 152 153 148 142 137 128 109 130 131 124 114 102 98 96 92 67 71 66 64 65 68 69 73 74 74
151 194 234 226 197 154 145 178 198 205 242 249 206 259 294 268 246 282 259 282 273 138 258 275 246 256 256 257 265 223 209 227 218 216 223 219 219 216 210 211 195 163 184 179 183 177 182 184 182 176 181 180 174 169 171 162 160 161 162 156 154 154 151 135 122 121 117 104 87 106 118 114 101 51 69 84 86 78 78 65 62 64 68 74 73 74
247 282 247 228 131 157 240 158 155 206 274 236 276 234 241 234 92 294 295 358 284 170 263 335 298 274 268 257 252 243 218 234 230 224 234 221 220 212 208 199 191 191 177 186 184 183 181 181 182 181 187 183 172 170 167 166 162 162 162 157 145 136 124 117 105 105 100 98 93 81 98 85 91 116 95 83 72 73 75 66 60 56 66 70 79 77
197 215 256 143 166 163 201 208 155 165 244 251 206 217 241 226 232 193 252 307 314 325 34 304 295 280 244 256 264 255 249 243 252 230 241 240 232 228 225 218 204 192 182 178 177 181 182 184 189 185 183 180 177 176 170 168 164 161 161 152 143 134 126 117 123 123 121 109 98 101 92 100 96 82 97 93 67 61 78 84 62 59 62 77 83 80
261 254 79 103 149 176 179 220 213 171 227 266 224 200 217 213 226 262 349 33 13 333 339 86 326 273 272 237 243 273 344 267 253 220 240 234 227 215 211 209 191 197 187 182 182 183 183 180 174 183 188 190 178 178 173 165 156 151 145 137 131 123 125 132 136 140 134 130 131 132 128 127 120 120 125 125 130 117 101 102 99 67 63 80 81 76
209 214 165 156 145 170 186 199 234 164 207 199 267 194 208 195 188 165 239 71 291 252 292 15 204 280 256 247 236 259 251 256 265 225 245 241 230 214 219 201 190 186 180 186 182 175 175 183 181 187 190 192 179 178 162 155 149 146 143 141 141 140 133 139 144 147 136 134 141 141 140 139 139 131 91 87 96 117 111 102 91 85 65 65 85 74
147 229 203 168 151 159 177 219 240 169 167 234 247 143 157 146 186 220 181 178 230 257 297 5 135 253 292 263 216 226 239 254 261 262 256 246 235 223 220 202 191 188 185 182 185 185 185 182 183 185 187 189 182 164 157 155 150 149 150 145 145 142 143 150 153 150 153 139 138 127 128 130 133 131 136 139 124 110 117 100 94 90 75 65 69 83
154 189 174 191 192 187 207 204 194 161 156 219 195 132 142 176 183 129 160 181 210 32 279 299 2 298 233 274 335 106 247 266 263 256 255 251 235 228 216 205 198 192 188 182 180 185 185 185 188 181 182 187 174 166 164 162 155 148 147 145 143 146 150 153 158 151 150 145 139 133 129 116 112 122 126 132 122 116 116 102 92 89 84 75 65 69
318 173 201 177 169 213 214 228 164 163 201 262 135 89 78 74 67 102 96 111 325 95 254 237 189 232 272 237 227 347 244 261 256 256 255 252 237 219 215 210 197 186 184 190 191 184 184 185 183 179 165 171 180 164 152 151 148 149 149 149 151 152 158 157 154 151 140 142 137 133 136 130 133 130 126 131 126 121 121 107 106 101 94 90 83 71
263 292 181 127 202 199 131 75 161 206 172 131 82 66 21 41 28 20 62 89 31 259 244 221 215 185 283 166 195 168 223 212 247 278 277 281 240 223 215 200 190 186 184 185 183 185 185 178 171 164 172 175 164 159 154 154 157 154 153 153 156 159 156 159 154 147 145 144 150 138 143 138 140 141 138 134 129 129 125 121 119 112 109 100 97 92
355 360 136 261 100 96 106 83 21 74 124 132 99 120 59 338 14 30 340 42 195 261 241 212 213 185 227 282 277 238 275 254 215 242 262 281 245 225 210 202 193 185 182 176 174 176 170 161 169 167 171 170 167 162 161 158 158 159 158 157 156 162 162 158 154 144 144 145 147 144 144 143 146 148 147 145 146 150 141 137 133 130 117 107 99 96
292 214 256 327 206 133 116 91 6 27 44 89 97 89 129 254 33 294 22 263 212 235 240 360 87 345 239 241 250 279 268 266 234 229 242 245 258 234 219 201 187 177 169 176 180 173 176 176 172 178 175 169 171 174 168 166 164 162 161 162 159 168 168 161 158 149 147 145 149 153 147 144 145 147 147 148 145 153 146 145 143 144 134 132 122 128
266 286 327 264 354 235 146 164 186 90 216 126 148 150 131 199 223 270 256 262 302 292 281 346 95 251 286 278 224 244 246 241 253 243 235 228 236 233 215 194 177 179 181 181 179 181 181 179 178 178 176 178 173 174 172 168 166 165 164 166 166 168 167 162 156 151 147 150 151 154 150 147 148 149 152 154 151 155 149 151 149 149 149 149 149 149
225 307 241 140 239 177 184 201 187 159 157 201 111 155 186 150 154 225 186 211 222 218 298 278 115 234 139 240 233 227 256 281 271 276 263 243 247 253 218 175 173 175 184 180 183 186 183 182 178 177 178 179 178 173 170 170 168 166 167 169 169 164 167 163 161 153 151 152 154 157 155 152 151 152 153 156 156 153 150 154 145 145 146 144 151 149
213 228 268 206 307 156 188 208 109 92 75 237 167 60 105 217 146 228 198 174 253 317 330 209 213 195 198 239 284 238 283 289 283 282 299 277 301 148 148 179 186 187 185 184 187 186 187 181 177 177 179 179 177 175 172 173 171 171 172 171 172 171 166 165 161 160 156 156 158 159 159 158 151 146 142 142 148 152 151 150 149 149 149 147 140 138
59 264 278 32 41 173 190 128 179 149 196 208 105 196 207 180 154 286 8 19 68 33 251 159 287 276 302 278 245 248 246 266 294 278 271 269 288 207 208 200 196 191 185 186 188 185 181 178 184 182 178 177 179 178 179 178 177 175 168 169 172 173 167 165 166 161 161 158 160 167 162 156 153 154 159 161 160 156 149 144 145 145 148 142 142 141
154 232 300 113 205 316 147 191 107 24 148 95 183 232 111 88 113 143 228 336 57 219 271 159 235 270 53 284 343 343 234 254 260 260 251 279 245 231 224 204 198 195 194 190 187 185 184 183 181 181 184 182 181 179 177 180 175 173 171 173 172 173 172 171 166 165 164 163 165 166 165 163 161 160 160 157 156 151 143 142 138 138 143 156 152 143
136 282 266 318 133 310 352 91 20 5 31 153 192 201 131 240 229 286 93 264 232 257 275 262 238 257 193 251 51 201 203 237 244 246 254 258 235 235 227 214 203 188 178 185 189 185 186 187 186 182 181 180 182 182 180 172 171 173 175 177 178 179 177 171 168 164 165 166 165 168 167 164 159 157 153 152 151 150 151 152 154 156 151 139 145 144
121 180 292 341 117 295 29 127 195 201 4 35 79 112 90 97 174 134 200 177 113 263 16 278 112 258 160 226 193 224 200 216 229 237 233 243 236 230 219 203 194 194 195 192 192 191 188 187 185 181 177 178 179 179 180 175 175 179 176 175 179 176 172 168 167 167 168 170 162 162 158 161 159 156 157 159 158 161 161 160 156 152 153 159 150 152
207 153 249 283 313 108 192 191 196 165 175 176 139 190 191 28 249 115 91 144 167 191 194 284 287 249 228 200 183 208 201 216 208 220 232 238 241 230 215 201 198 198 196 196 192 188 184 184 181 181 180 178 176 180 179 180 183 180 174 179 179 176 175 173 171 167 168 163 166 161 167 164 161 160 157 159 167 161 161 158 158 159 155 144 159 154
198 167 202 131 294 224 251 240 205 194 190 183 175 190 183 149 149 178 255 46 143 149 245 174 266 283 260 158 202 199 210 202 221 212 231 240 245 229 211 205 197 199 202 193 190 183 182 181 179 175 174 175 178 184 185 185 180 181 182 181 178 178 180 174 172 172 165 168 165 168 166 165 161 158 158 163 165 164 161 162 161 156 152 163 162 160
165 147 104 192 211 208 215 261 281 246 148 219 187 220 183 185 135 137 209 236 36 250 117 197 331 276 203 169 238 211 221 204 222 226 234 246 247 241 220 208 206 204 193 190 185 183 184 184 180 180 179 180 185 185 182 182 187 185 182 179 182 181 185 178 172 168 165 166 169 171 167 163 163 160 164 165 168 167 166 163 158 159 161 162 161 163
101 129 157 274 316 317 300 295 19 52 113 318 306 105 129 200 198 202 199 172 183 225 209 276 255 262 5 354 246 274 269 290 284 186 235 249 271 269 221 201 203 195 187 183 182 179 181 176 172 174 184 186 188 187 188 188 186 184 184 184 181 187 179 175 172 169 168 168 171 167 164 168 163 164 168 171 172 170 169 163 162 162 162 160 158 162
149 250 169 133 358 344 348 332 281 341 60 207 176 206 204 208 199 175 86 84 249 214 188 166 248 262 262 333 312 357 342 303 281 274 203 258 264 244 212 197 194 190 179 182 182 178 171 176 184 191 190 191 193 193 190 189 189 185 186 182 184 184 178 175 174 171 172 170 167 169 171 171 170 171 173 173 172 173 167 165 161 164 163 157 163 165
174 155 153 193 214 217 216 202 209 201 199 195 239 201 204 189 197 149 227 203 225 245 146 218 251 252 297 308 308 315 332 299 267 249 278 220 250 256 215 196 190 183 191 184 179 177 188 189 187 189 193 193 193 192 190 190 189 187 185 187 182 179 179 180 175 176 170 171 170 174 177 175 174 177 176 173 173 172 169 166 165 164 164 165 164 161
174 181 187 196 210 225 229 229 47 97 81 187 214 186 204 206 203 201 214 217 224 209 165 223 231 262 262 260 318 269 294 234 276 303 257 254 254 252 221 205 196 195 188 187 185 186 179 191 199 197 193 195 192 192 193 190 188 188 185 184 185 182 177 176 176 176 174 174 175 174 181 180 181 176 175 175 173 168 169 170 167 166 167 169 167 167
84 182 211 209 212 226 232 216 180 158 181 203 196 200 201 194 198 194 203 226 149 85 256 246 224 255 262 251 251 244 265 276 259 257 266 260 252 240 221 195 190 188 189 180 183 189 198 201 195 194 195 190 192 189 192 194 191 188 186 185 182 177 176 176 178 177 177 174 177 182 184 182 176 175 174 170 169 172 171 168 168 169 165 163 170 177
159 214 220 207 226 230 237 195 170 180 186 187 198 196 195 203 196 199 217 223 163 201 238 257 146 225 253 250 245 241 207 237 230 229 230 231 204 188 181 190 200 202 188 190 202 202 198 196 199 198 194 194 184 188 189 188 190 188 187 183 181 177 182 175 176 177 178 178 183 187 180 171 173 170 168 170 171 172 173 172 170 168 168 175 179 182
135 283 236 191 233 242 243 225 168 175 152 144 205 206 203 200 206 208 219 220 212 226 241 255 248 235 248 258 237 231 209 227 242 243 157 191 221 212 197 210 211 203 199 205 207 205 203 201 192 194 192 190 191 188 186 188 189 188 183 181 177 178 178 170 183 181 184 187 188 178 172 172 171 173 170 173 178 177 173 173 173 171 173 182 184 182
142 269 58 121 226 250 253 251 136 184 148 221 226 217 219 216 214 211 218 226 223 238 242 249 261 264 257 203 242 236 234 278 294 230 224 225 223 206 209 218 219 211 212 216 213 209 204 194 192 187 191 197 194 192 189 188 185 180 180 178 177 177 175 175 180 188 189 190 182 174 170 173 178 173 179 181 175 176 176 176 173 174 181 184 184 183
147 245 56 84 189 261 254 249 233 157 204 223 240 232 228 218 215 211 219 220 210 224 236 247 255 256 260 166 248 176 174 211 227 233 229 232 219 208 212 222 220 217 215 217 214 207 199 196 193 193 197 195 192 187 184 183 181 179 186 180 179 175 167 175 182 186 187 186 180 177 177 180 176 179 184 178 183 180 177 171 172 181 186 185 187 186
168 154 176 154 222 239 276 166 221 138 151 247 245 236 228 207 209 217 225 221 214 214 224 231 240 244 251 220 228 233 215 224 234 235 234 233 220 207 213 218 219 219 217 214 209 204 203 199 197 197 193 186 188 188 187 176 174 188 185 180 178 163 172 180 182 183 184 184 184 183 180 179 181 185 183 186 181 176 174 177 182 187 187 193 188 172
162 174 201 160 215 244 194 118 111 155 216 225 242 251 211 206 200 208 219 219 222 202 219 225 235 246 250 229 225 241 224 227 224 232 215 213 208 213 229 236 233 228 223 216 207 203 198 187 189 190 191 191 187 181 172 178 183 180 171 165 160 173 177 178 182 183 185 182 186 183 180 183 184 187 187 181 179 176 181 184 193 192 189 181 175 185
177 185 193 161 181 217 135 115 174 213 227 240 346 312 266 214 206 210 229 226 225 222 233 248 254 256 253 241 242 247 236 239 240 241 242 266 243 213 216 225 228 225 215 190 176 174 181 186 186 185 183 182 174 167 162 170 169 157 155 161 166 172 174 184 183 185 184 187 187 181 181 184 187 189 186 182 179 181 188 193 193 189 190 186 187 185
180 182 139 217 158 54 126 183 228 221 241 305 279 21 216 104 154 196 243 245 233 224 218 232 243 247 251 254 251 239 236 263 296 273 252 249 206 219 225 233 235 205 173 174 180 192 185 186 185 183 184 165 161 168 170 171 163 161 169 163 169 171 177 179 187 192 188 192 189 188 188 187 189 188 184 181 182 186 193 196 197 194 187 183 190 198
169 142 149 209 169 209 197 211 237 347 317 281 248 173 151 165 154 168 222 245 233 222 217 226 241 248 251 255 256 259 336 336 293 282 258 229 237 236 220 217 163 184 188 195 191 193 186 177 170 157 144 157 166 166 173 161 160 162 160 167 176 176 179 182 192 196 197 198 194 193 190 188 186 187 184 184 186 194 199 198 199 197 180 188 196 195
155 173 188 197 215 200 206 230 241 240 248 258 229 208 178 174 170 178 189 264 239 203 212 213 235 240 244 249 255 250 100 302 277 265 225 218 194 164 168 187 185 169 158 138 119 121 131 136 130 144 149 155 165 165 154 155 159 161 167 176 174 175 183 189 202 203 199 199 195 191 185 184 184 187 188 188 196 200 204 202 199 198 185 192 195 203
271 192 166 192 190 147 215 229 216 220 245 221 185 165 178 159 134 99 79 258 253 193 213 196 224 234 235 242 235 116 160 241 259 258 225 174 193 171 125 83 116 128 131 146 155 144 136 139 142 143 143 149 160 162 156 155 157 160 173 176 179 182 189 202 209 200 198 197 186 184 185 187 189 191 191 196 202 201 201 199 199 192 184 204 206 215
179 185 158 206 208 201 211 221 228 213 253 229 188 200 213 174 127 96 238 258 256 208 218 171 230 250 260 218 150 162 179 230 247 274 197 163 131 113 142 146 127 115 93 89 83 124 130 128 119 134 151 165 161 147 148 151 158 169 173 179 173 186 203 211 206 191 191 190 189 186 186 188 191 195 196 202 203 199 203 195 181 187 193 202 205 210
173 176 194 204 211 220 221 238 282 275 257 179 177 193 182 193 137 153 228 243 199 208 217 166 219 232 213 183 168 192 233 232 269 289 57 129 98 63 54 64 83 93 103 102 108 111 112 116 129 143 148 135 135 139 144 147 157 171 175 167 180 205 213 203 182 187 190 183 182 186 190 192 195 198 203 201 201 198 196 191 195 184 185 199 201 202
86 125 3 201 218 215 215 225 232 263 235 158 344 156 173 115 193 223 228 112 134 197 234 190 219 222 175 167 176 183 247 294 318 87 111 81 105 85 72 73 74 64 53 76 91 103 104 99 100 100 103 127 137 144 147 152 162 173 167 179 200 213 197 172 179 172 172 178 185 190 191 193 198 200 202 197 184 187 198 195 186 189 192 187 189 204
177 164 193 195 196 324 131 229 195 236 237 122 119 71 280 178 237 160 146 284 189 197 171 220 188 198 145 117 140 151 121 58 61 71 74 75 79 88 79 82 88 96 96 90 78 66 103 105 111 120 125 134 141 148 155 155 164 167 171 189 212 189 159 168 160 167 174 180 185 189 191 193 193 195 192 193 191 191 199 183 186 189 179 184 193 205
178 123 196 221 177 176 193 209 210 218 133 179 144 179 196 198 187 172 131 118 203 177 187 176 229 196 161 137 140 119 117 106 80 90 87 82 85 81 70 65 70 71 65 48 73 108 100 99 95 93 77 93 117 133 145 153 155 163 178 210 158 142 149 150 161 159 170 181 188 186 193 194 194 195 192 192 184 191 193 188 190 186 190 190 193 201
205 193 168 185 176 174 203 212 338 294 160 169 53 318 275 197 173 175 140 155 154 226 186 140 175 164 157 135 126 137 122 157 134 142 131 143 124 122 119 125 122 125 122 124 113 113 119 133 131 116 99 97 129 145 151 156 150 166 193 193 145 153 155 155 151 160 173 183 187 192 195 188 192 194 194 189 180 189 198 194 177 192 198 184 199 203
346 129 100 108 249 25 352 170 343 340 285 272 333 241 242 328 182 138 144 120 198 177 179 163 166 149 140 150 118 99 128 154 135 116 115 120 119 114 105 101 90 83 100 103 100 106 120 112 114 119 121 106 114 131 125 133 151 165 202 168 143 144 140 144 147 168 187 187 190 195 179 186 200 199 197 191 192 199 199 193 189 199 192 191 206 209
249 147 114 162 238 132 242 152 164 207 294 276 286 309 290 272 282 153 177 177 157 162 140 127 146 150 153 149 131 139 144 146 118 115 126 125 129 139 140 137 137 146 149 139 148 132 119 121 117 126 132 134 77 71 67 84 67 88 81 95 128 135 141 149 164 174 179 188 190 175 174 190 196 197 195 196 199 203 201 195 193 198 197 198 206 213
274 175 121 191 178 187 240 219 229 298 253 241 217 233 241 173 36 15 211 148 131 106 103 130 120 113 131 126 148 137 151 162 133 141 137 143 143 143 140 138 136 113 87 108 119 108 106 116 133 137 124 116 78 71 74 73 71 68 78 74 92 116 127 146 167 176 189 187 176 184 184 195 193 187 195 200 194 198 205 206 196 198 207 202 205 207
162 128 195 182 181 299 346 280 235 317 289 247 218 224 213 165 151 132 141 126 121 103 94 65 67 151 156 155 149 136 136 181 166 151 144 143 140 136 139 137 130 127 131 120 105 115 128 136 114 116 113 101 110 111 95 91 88 92 88 102 115 113 118 136 157 176 183 183 177 202 200 202 198 200 201 203 207 219 209 201 199 210 225 226 207 208
104 186 180 117 111 195 205 200 146 144 228 218 218 210 198 184 162 140 119 107 113 117 120 105 63 45 110 143 158 151 154 161 161 152 143 150 151 141 129 123 120 121 110 106 103 107 104 105 127 126 120 133 145 138 142 148 163 220 112 115 129 135 138 155 153 173 211 193 204 213 193 215 217 214 209 205 212 221 251 263 235 228 224 241 215 226
180 178 153 173 187 216 204 167 182 160 153 215 195 188 165 162 154 144 156 157 171 156 147 128 113 79 73 58 145 151 148 157 158 135 120 125 141 149 145 141 137 133 133 136 117 104 113 115 116 123 133 164 111 121 133 139 25 358 2 21 59 129 131 138 161 190 215 193 221 211 209 212 221 222 219 227 218 224 237 269 276 250 244 242 229 232